TimeEST,TemperatureF,Dew PointF,Humidity,Sea Level PressureIn,VisibilityMPH,Wind Direction,Wind SpeedMPH,Gust SpeedMPH,PrecipitationIn,Events,Conditions,WindDirDegrees,DateUTC
12:54 AM,30.9,25.0,79,30.44,10.0,Calm,Calm,-,N/A,,Clear,0,2013-01-08 05:54:00
1:54 AM,36.0,28.9,76,30.43,10.0,SW,5.8,-,N/A,,Clear,230,2013-01-08 06:54:00
2:54 AM,33.1,25.0,72,30.44,10.0,SW,5.8,-,N/A,,Clear,230,2013-01-08 07:54:00
3:54 AM,34.0,24.1,67,30.42,10.0,SW,4.6,-,N/A,,Clear,230,2013-01-08 08:54:00
4:54 AM,32.0,24.1,73,30.42,10.0,WSW,4.6,-,N/A,,Clear,240,2013-01-08 09:54:00
5:54 AM,35.1,27.0,72,30.43,10.0,WSW,4.6,-,N/A,,Clear,240,2013-01-08 10:54:00
6:54 AM,30.9,25.0,79,30.45,10.0,Calm,Calm,-,N/A,,Clear,0,2013-01-08 11:54:00
7:54 AM,30.9,24.1,76,30.47,9.0,Variable,3.5,-,N/A,,Partly Cloudy,0,2013-01-08 12:54:00
8:54 AM,42.1,32.0,67,30.48,10.0,West,4.6,-,N/A,,Clear,260,2013-01-08 13:54:00
9:54 AM,48.0,34.0,58,30.47,10.0,SW,8.1,-,N/A,,Clear,220,2013-01-08 14:54:00
10:54 AM,51.1,32.0,48,30.46,10.0,SSW,8.1,-,N/A,,Mostly Cloudy,210,2013-01-08 15:54:00
11:54 AM,51.1,32.0,48,30.42,10.0,SSW,12.7,-,N/A,,Overcast,200,2013-01-08 16:54:00
12:54 PM,52.0,35.1,53,30.40,10.0,SSW,10.4,-,N/A,,Overcast,200,2013-01-08 17:54:00
1:54 PM,53.1,37.0,55,30.39,10.0,SSW,11.5,-,N/A,,Mostly Cloudy,210,2013-01-08 18:54:00
2:54 PM,52.0,36.0,54,30.40,10.0,SSW,10.4,-,N/A,,Overcast,200,2013-01-08 19:54:00
3:54 PM,51.1,37.0,59,30.41,10.0,SSW,5.8,-,N/A,,Overcast,210,2013-01-08 20:54:00
4:54 PM,48.0,36.0,63,30.41,10.0,SW,4.6,-,N/A,,Overcast,220,2013-01-08 21:54:00
5:54 PM,46.9,36.0,66,30.42,10.0,SW,4.6,-,N/A,,Overcast,220,2013-01-08 22:54:00
6:54 PM,46.9,37.0,68,30.41,10.0,Calm,Calm,-,N/A,,Overcast,0,2013-01-08 23:54:00
7:54 PM,46.0,37.0,71,30.41,10.0,South,3.5,-,N/A,,Overcast,180,2013-01-09 00:54:00
8:54 PM,45.0,37.0,74,30.40,10.0,Calm,Calm,-,N/A,,Partly Cloudy,0,2013-01-09 01:54:00
9:54 PM,44.1,37.0,76,30.39,10.0,Calm,Calm,-,N/A,,Overcast,0,2013-01-09 02:54:00
10:54 PM,42.1,36.0,79,30.39,10.0,NW,3.5,-,N/A,,Mostly Cloudy,310,2013-01-09 03:54:00
11:54 PM,42.8,35.6,76,30.41,10.0,NW,4.6,-,N/A,,Mostly Cloudy,320,2013-01-09 04:54:00